Hourly Data Report for September 26, 2007

PETERBOROUGH AWOS
ONTARIO

44°14'00.000" N
78°22'00.000" W
191.40 m
6166420

Download Data

Hourly Data (September 2007)
Hourly Data Report for September 26, 2007
TIME
LST
Temp Definition
°C
Dew Point Definition
°C
Rel Hum Definition
%
Precip. Amount Definition
mm

Wind Dir Definition
10's deg

Wind Spd Definition
km/h
Visibility Definition
km
Stn Press Definition
kPa
Hmdx Definition


Wind Chill Definition


Weather Definition


00:00 21.2 20.5 96   19 11 11.3 98.83 29    
01:00 20.6 20.6 100   25 35 1.0 99.03 29   Heavy Rain
02:00 19.7 19.4 98   19 9 15.0 98.89      
03:00 19.9 19.0 95   25 9 8.0 98.85     Rain
04:00 19.0 18.6 98     0 15.0 98.83     Rain
05:00 19.2 18.3 95   22 9 15.0 98.86      
06:00 19.4 18.6 95   23 13 15.0 98.93      
07:00 19.5 18.9 96   20 11 12.9 98.95      
08:00 20.5 19.3 93   23 15 15.0 98.96 28    
09:00 22.2 19.9 87   26 20 15.0 98.99 30    
10:00 20.9 17.3 80   LegendMM LegendMM 15.0 99.10 26    
11:00 21.9 15.9 69   32 19 15.0 99.09 26    
12:00 22.6 15.6 65   30 20 15.0 99.11 27    
13:00 22.5 15.1 63   27 19 15.0 99.09 27    
14:00 21.7 13.9 61   30 17 15.0 99.10 25    
15:00 21.3 15.4 69   29 17 15.0 99.09 26    
16:00 20.3 13.8 66   29 13 15.0 99.11      
17:00 19.8 13.5 67   30 6 15.0 99.16      
18:00 19.4 13.7 70   33 6 15.0 99.20      
19:00 17.7 13.4 76   33 7 15.0 99.27      
20:00 16.6 12.5 77   36 11 15.0 99.28      
21:00 15.7 11.9 78     0 15.0 99.34      
22:00 15.1 11.8 81     0 15.0 99.31      
23:00 15.0 11.1 77   32 7 15.0 99.28      

Notes on Data Quality.

Legend

  • E = Estimated
  • M = Missing
  • NA = Not Available*
  • [empty] = Indicates an unobserved value
Date modified: